Location: Dilsberg
(49.3983°N, 8.8354°E)
Time: 06:45:03
(UTC+00:00)

Cosmos 1656 - Pass Details

Date: 19 May 2025
Orbit: 796 x 848 km, 71.1° (Epoch: 14 June)

Event Time Altitude Azimuth Distance (km) Brightness Sun altitude
Rises 19:49:21 0° 330° (NNW) 3,410 8.5 -6.3°
Reaches altitude 10° 19:51:50 10° 328° (NNW) 2,465 7.6 -6.6°
Maximum altitude 19:57:27 72° 246° (WSW) 876 3.9 -7.3°
Drops below altitude 10° 20:02:58 10° 163° (SSE) 2,416 5.6 -7.9°
Enters shadow 20:03:51 - 162° (SSE) 2,749 5.8 -8.0°
